TimeEDT,TemperatureF,Dew PointF,Humidity,Sea Level PressureIn,VisibilityMPH,Wind Direction,Wind SpeedMPH,Gust SpeedMPH,PrecipitationIn,Events,Conditions,WindDirDegrees,DateUTC
12:15 AM,75.2,75.2,100,-9999,7.0,Calm,Calm,-,N/A,,Clear,0,2013-08-21 04:15:00
12:35 AM,75.2,75.2,100,-9999,7.0,Calm,Calm,-,N/A,,Clear,0,2013-08-21 04:35:00
12:55 AM,75.2,75.2,100,-9999,7.0,Calm,Calm,-,N/A,,Clear,0,2013-08-21 04:55:00
1:15 AM,73.4,73.4,100,-9999,10.0,Calm,Calm,-,N/A,,Clear,0,2013-08-21 05:15:00
1:35 AM,75.2,75.2,100,-9999,7.0,Calm,Calm,-,N/A,,Clear,0,2013-08-21 05:35:00
1:55 AM,75.2,75.2,100,-9999,7.0,Calm,Calm,-,N/A,,Clear,0,2013-08-21 05:55:00
2:15 AM,73.4,73.4,100,-9999,7.0,Calm,Calm,-,N/A,,Clear,0,2013-08-21 06:15:00
2:35 AM,73.4,73.4,100,-9999,3.0,Calm,Calm,-,N/A,,Clear,0,2013-08-21 06:35:00
2:55 AM,73.4,73.4,100,-9999,2.5,Calm,Calm,-,N/A,,Scattered Clouds,0,2013-08-21 06:55:00
3:15 AM,73.4,73.4,100,-9999,5.0,Calm,Calm,-,N/A,,Scattered Clouds,0,2013-08-21 07:15:00
3:35 AM,73.4,73.4,100,-9999,7.0,Calm,Calm,-,N/A,,Scattered Clouds,0,2013-08-21 07:35:00
3:55 AM,73.4,73.4,100,-9999,2.0,Calm,Calm,-,N/A,,Clear,0,2013-08-21 07:55:00
4:15 AM,73.4,73.4,100,-9999,7.0,Calm,Calm,-,N/A,,Scattered Clouds,0,2013-08-21 08:15:00
4:35 AM,73.4,73.4,100,-9999,7.0,Calm,Calm,-,N/A,,Mostly Cloudy,0,2013-08-21 08:35:00
4:55 AM,73.4,73.4,100,-9999,4.0,Calm,Calm,-,N/A,,Overcast,0,2013-08-21 08:55:00
5:15 AM,73.4,73.4,100,-9999,4.0,Calm,Calm,-,N/A,,Overcast,0,2013-08-21 09:15:00
5:35 AM,73.4,73.4,100,-9999,7.0,Calm,Calm,-,N/A,,Mostly Cloudy,0,2013-08-21 09:35:00
5:55 AM,73.4,73.4,100,-9999,3.0,Calm,Calm,-,N/A,,Overcast,0,2013-08-21 09:55:00
6:15 AM,73.4,73.4,100,-9999,0.8,Calm,Calm,-,N/A,,Overcast,0,2013-08-21 10:15:00
6:35 AM,73.4,73.4,100,-9999,5.0,Calm,Calm,-,N/A,,Overcast,0,2013-08-21 10:35:00
6:55 AM,73.4,73.4,100,-9999,1.0,Calm,Calm,-,N/A,,Overcast,0,2013-08-21 10:55:00
7:15 AM,73.4,73.4,100,-9999,0.5,Calm,Calm,-,N/A,Fog,Fog,0,2013-08-21 11:15:00
7:35 AM,73.4,73.4,100,-9999,1.0,Calm,Calm,-,N/A,,Overcast,0,2013-08-21 11:35:00
7:55 AM,73.4,73.4,100,-9999,0.8,Calm,Calm,-,N/A,,Overcast,0,2013-08-21 11:55:00
8:15 AM,75.2,75.2,100,-9999,0.5,Calm,Calm,-,N/A,Fog,Fog,0,2013-08-21 12:15:00
8:55 AM,75.2,75.2,100,-9999,1.8,Calm,Calm,-,N/A,,Overcast,0,2013-08-21 12:55:00
9:15 AM,77.0,77.0,100,-9999,4.0,Calm,Calm,-,N/A,,Overcast,0,2013-08-21 13:15:00
9:35 AM,78.8,78.8,100,-9999,7.0,Calm,Calm,-,N/A,,Overcast,0,2013-08-21 13:35:00
9:55 AM,78.8,78.8,100,-9999,10.0,NE,3.5,-,N/A,,Scattered Clouds,50,2013-08-21 13:55:00
10:35 AM,82.4,78.8,89,30.22,10.0,Calm,Calm,-,N/A,,Scattered Clouds,0,2013-08-21 14:35:00
10:55 AM,82.4,78.8,89,30.22,10.0,Calm,Calm,-,N/A,,Mostly Cloudy,0,2013-08-21 14:55:00
11:35 AM,86.0,78.8,79,30.22,10.0,Calm,Calm,-,N/A,,Scattered Clouds,0,2013-08-21 15:35:00
11:55 AM,86.0,78.8,79,30.22,10.0,Calm,Calm,-,N/A,,Mostly Cloudy,0,2013-08-21 15:55:00
12:15 PM,86.0,78.8,79,30.21,10.0,Calm,Calm,-,N/A,,Overcast,0,2013-08-21 16:15:00
12:35 PM,86.0,78.8,79,30.21,10.0,Calm,Calm,-,N/A,,Mostly Cloudy,0,2013-08-21 16:35:00
12:55 PM,87.8,80.6,79,30.20,10.0,North,4.6,-,N/A,,Clear,10,2013-08-21 16:55:00
1:15 PM,89.6,78.8,70,30.20,10.0,NE,4.6,-,N/A,,Clear,50,2013-08-21 17:15:00
1:35 PM,89.6,78.8,70,30.19,10.0,Calm,Calm,-,N/A,,Clear,0,2013-08-21 17:35:00
1:55 PM,86.0,78.8,79,30.18,7.0,North,3.5,-,N/A,,Scattered Clouds,10,2013-08-21 17:55:00
2:55 PM,84.2,77.0,79,30.17,10.0,South,5.8,-,N/A,,Scattered Clouds,190,2013-08-21 18:55:00
3:15 PM,86.0,77.0,74,30.16,10.0,SSE,3.5,-,N/A,,Clear,160,2013-08-21 19:15:00
3:55 PM,89.6,77.0,66,30.16,7.0,SSE,6.9,-,N/A,,Clear,160,2013-08-21 19:55:00
4:15 PM,89.6,77.0,66,30.15,10.0,SSW,10.4,-,N/A,,Clear,200,2013-08-21 20:15:00
4:35 PM,89.6,77.0,66,30.13,10.0,South,3.5,-,N/A,,Clear,180,2013-08-21 20:35:00
4:55 PM,87.8,78.8,75,30.13,10.0,SSE,4.6,-,N/A,,Scattered Clouds,160,2013-08-21 20:55:00
5:15 PM,86.0,78.8,79,30.14,10.0,SSE,4.6,-,N/A,,Scattered Clouds,160,2013-08-21 21:15:00
5:35 PM,86.0,78.8,79,30.14,10.0,WSW,5.8,-,N/A,,Mostly Cloudy,240,2013-08-21 21:35:00
5:55 PM,86.0,78.8,79,30.14,10.0,WSW,3.5,-,N/A,,Mostly Cloudy,240,2013-08-21 21:55:00
6:15 PM,87.8,77.0,70,30.13,10.0,Calm,Calm,-,N/A,,Scattered Clouds,0,2013-08-21 22:15:00
6:35 PM,86.0,77.0,74,30.12,10.0,Calm,Calm,-,N/A,,Clear,0,2013-08-21 22:35:00
6:55 PM,86.0,77.0,74,30.12,10.0,South,4.6,-,N/A,,Mostly Cloudy,170,2013-08-21 22:55:00
7:15 PM,86.0,77.0,74,30.12,7.0,SSW,4.6,-,N/A,,Scattered Clouds,200,2013-08-21 23:15:00
7:35 PM,84.2,78.8,84,30.12,10.0,Calm,Calm,-,N/A,,Clear,0,2013-08-21 23:35:00
7:55 PM,82.4,78.8,89,30.13,10.0,Calm,Calm,-,N/A,,Mostly Cloudy,0,2013-08-21 23:55:00
8:15 PM,82.4,78.8,89,30.13,10.0,Calm,Calm,-,N/A,,Scattered Clouds,0,2013-08-22 00:15:00
8:35 PM,80.6,78.8,94,30.12,10.0,Calm,Calm,-,N/A,,Clear,0,2013-08-22 00:35:00
8:55 PM,80.6,78.8,94,30.13,7.0,Calm,Calm,-,N/A,,Clear,0,2013-08-22 00:55:00
9:15 PM,78.8,78.8,100,30.14,10.0,Calm,Calm,-,N/A,,Clear,0,2013-08-22 01:15:00
9:35 PM,78.8,78.8,100,30.15,10.0,Calm,Calm,-,N/A,,Clear,0,2013-08-22 01:35:00
9:55 PM,78.8,78.8,100,30.15,7.0,Calm,Calm,-,N/A,,Clear,0,2013-08-22 01:55:00
10:15 PM,77.0,77.0,100,30.17,7.0,Calm,Calm,-,N/A,,Clear,0,2013-08-22 02:15:00
10:35 PM,77.0,77.0,100,30.17,10.0,Calm,Calm,-,N/A,,Clear,0,2013-08-22 02:35:00
10:55 PM,77.0,77.0,100,30.17,7.0,Calm,Calm,-,N/A,,Clear,0,2013-08-22 02:55:00
11:15 PM,77.0,77.0,100,30.17,7.0,Calm,Calm,-,N/A,,Clear,0,2013-08-22 03:15:00
11:35 PM,77.0,77.0,100,30.17,7.0,Calm,Calm,-,N/A,,Clear,0,2013-08-22 03:35:00
11:55 PM,77.0,77.0,100,30.16,10.0,Calm,Calm,-,N/A,,Clear,0,2013-08-22 03:55:00